Location: Gradaro
(45.0833°N, 10.8833°E)
Time: 23:06:04
(UTC+00:00)

Cosmos 2263 Rocket - Pass Details

Date: 27 April 2021
Orbit: 824 x 848 km, 71.0° (Epoch: 15 May)

Event Time Altitude Azimuth Distance (km) Brightness Sun altitude
Exits shadow 20:46:28 - 212° (SSW) 2,656 4.6 -22.0°
Reaches altitude 10° 20:47:06 10° 212° (SSW) 2,417 4.4 -22.1°
Maximum altitude 20:52:37 72° 297° (WNW) 867 2.3 -22.7°
Drops below altitude 10° 20:58:12 10° 22° (NNE) 2,438 5.0 -23.3°
Sets 21:00:40 0° 25° (NNE) 3,378 5.7 -23.5°
